Banff, Alberta

8:17 AM MDT on October 18, 2017 (GMT -0600)
Banff

Weather History for CWZG - December, 2013

Change the Weather History Date:

Tuesday, December 24, 2013

  Actual Average Record
Temperature  
Mean Temperature 28 °F -  
Max Temperature 34 °F - - ()
Min Temperature 22 °F - - ()
Degree Days  
Heating Degree Days 37    
Moisture  
Dew Point 15 °F    
Average Humidity 63    
Maximum Humidity 90    
Minimum Humidity 39    
Precipitation  
Precipitation 0.02 in - - ()
Sea Level Pressure  
Sea Level Pressure 30.25 in    
Wind  
Wind Speed 5 mph ()    
Max Wind Speed 9 mph    
Max Gust Speed 21 mph    
T = Trace of Precipitation, MM = Missing Value Source: Averaged Metar Reports

Daily Weather History Graph

Daily Weather History Graph

Search for Another Location

Airport or City:

Trip Planner

Search our weather history database for the weather conditions in past years. The results will help you decide how hot, cold, wet, or windy it might be!

Date:

Astronomy

Dec. 24, 2013 Rise Set
Actual Time 8:45 AM MST 4:38 PM MST
Civil Twilight 8:05 AM MST 5:18 PM MST
Nautical Twilight 7:22 AM MST 6:01 PM MST
Astronomical Twilight 6:42 AM MST 6:41 PM MST
Moon No Moon Rise 11:57 AM MST (12/24)
Length of Visible Light 9h 13m
Length of Day
7h 53m
Waning Gibbous, 58% of the Moon is Illuminated
Dec 24
Waning Gibbous
Dec 25
Last Quarter
Jan 1
New
Jan 7
First Quarter
Jan 15
Full

Hourly Weather History & Observations

Time (MST) Temp. Windchill Dew Point Humidity Pressure Visibility Wind Dir Wind Speed Gust Speed Precip Events Conditions
12:00 AM 22.3 °F 14.9 °F 19.8 °F 90% 30.09 in - SSW 5.8 mph - N/A   Unknown
1:00 AM 23.7 °F 15.6 °F 20.8 °F 89% 30.09 in - SW 6.9 mph - N/A   Unknown
2:00 AM 23.4 °F 17.4 °F 20.1 °F 87% 30.12 in - SW 4.6 mph - N/A   Unknown
3:00 AM 24.8 °F 17.9 °F 22.1 °F 89% 30.15 in - WSW 5.8 mph - N/A   Unknown
4:00 AM 24.1 °F 17.0 °F 18.3 °F 79% 30.17 in - WSW 5.8 mph - N/A   Unknown
5:00 AM 25.0 °F 15.5 °F 18.0 °F 75% 30.18 in - WSW 9.2 mph - N/A   Unknown
6:00 AM 25.5 °F 17.8 °F 18.5 °F 75% 30.21 in - WSW 6.9 mph - N/A   Unknown
7:00 AM 25.0 °F 18.1 °F 16.3 °F 70% 30.23 in - WSW 5.8 mph - N/A   Unknown
8:00 AM 25.5 °F 19.9 °F 16.2 °F 68% 30.24 in - WSW 4.6 mph - N/A   Unknown
9:00 AM 25.2 °F 19.5 °F 15.6 °F 67% 30.25 in - WSW 4.6 mph - N/A   Unknown
10:00 AM 26.1 °F 21.9 °F 15.4 °F 64% 30.26 in - WSW 3.5 mph - N/A   Unknown
11:00 AM 27.7 °F 22.4 °F 15.3 °F 60% 30.28 in - West 4.6 mph - N/A   Unknown
12:00 PM 31.3 °F 26.6 °F 14.0 °F 49% 30.27 in - West 4.6 mph - N/A   Unknown
1:00 PM 31.6 °F 25.1 °F 15.1 °F 50% 30.27 in - WSW 6.9 mph - N/A   Unknown
2:00 PM 32.9 °F 28.5 °F 14.5 °F 47% 30.26 in - WSW 4.6 mph - N/A   Unknown
3:00 PM 34.2 °F 29.0 °F 11.1 °F 39% 30.26 in - WSW 5.8 mph - N/A   Unknown
4:00 PM 32.9 °F 28.5 °F 12.7 °F 43% 30.30 in - West 4.6 mph - N/A   Unknown
5:00 PM 29.8 °F 24.9 °F 12.2 °F 48% 30.32 in - West 4.6 mph - N/A   Unknown
6:00 PM 29.3 °F 23.2 °F 12.4 °F 49% 30.33 in - WSW 5.8 mph - N/A   Unknown
7:00 PM 27.7 °F 22.4 °F 11.3 °F 50% 30.34 in - WSW 4.6 mph - N/A   Unknown
8:00 PM 26.8 °F 20.2 °F 12.2 °F 54% 30.35 in - WSW 5.8 mph - N/A   Unknown
9:00 PM 25.9 °F 19.2 °F 12.6 °F 57% 30.37 in - WSW 5.8 mph - N/A   Unknown
10:00 PM 24.8 °F 16.9 °F 12.9 °F 61% 30.37 in - West 6.9 mph - N/A   Unknown
11:00 PM 26.2 °F 17.8 °F 12.2 °F 55% 30.35 in - West 8.1 mph 20.7 mph N/A   Unknown